Regional Weather Roundup
Issued by NWS Green Bay, WI

Home | Current Version | Previous Version | Text Only | Print | Product List | Glossary On
Versions: 1 2 3 4 5 6 7 8 9 10 11 12 13 14 15 16 17 18 19 20 21 22 23 24 25 26 27 28 29 30 31 32 33 34 35 36 37 38 39 40 41 42 43 44 45 46 47 48 49 50
000
ASUS43 KGRB 270611
RWRGRB

NORTH-CENTRAL AND NORTHEAST WISCONSIN REGIONAL WEATHER ROUNDUP
NATIONAL WEATHER SERVICE GREEN BAY WI
100 AM CDT FRI MAY 27 2016

WIZ005-009-010>012-018-019-270700-
NORTH CENTRAL WISCONSIN

CITY           SKY/WX    TMP DP  RH WIND       PRES   REMARKS
IRONWOOD       CLOUDY    55  55 100 W5        29.84R
MANITOWISH WTR NOT AVBL
ARBOR VITAE    CLOUDY    59  57  93 CALM      29.89R
EAGLE RIVER      N/A     58  58  97 CALM      29.88R
LAND O LAKES   FOG       56  56 100 CALM      29.89R VSB 3/4
RHINELANDER    MOCLDY    60  56  86 W3        29.89R
PHILLIPS       CLOUDY    60  56  88 CALM      29.88R
ANTIGO         PTCLDY    57  56  97 CALM      29.90R
TOMAHAWK       PTCLDY    55  54  95 CALM      29.89R
MERRILL        CLOUDY    55  55 100 CALM      29.88S
$$

WIZ013-073-270700-
NORTHEAST WISCONSIN

CITY           SKY/WX    TMP DP  RH WIND       PRES   REMARKS
IRON MOUNTAIN  FOG       62  61  96 SE5       29.85S VSB 1/2
MARINETTE      CLEAR     57  57 100 CALM      29.87R FOG
OCONTO         CLEAR    N/A N/A N/A CALM      29.86R
$$

WIZ017-030-035>037-045-270700-
CENTRAL WISCONSIN

CITY           SKY/WX    TMP DP  RH WIND       PRES   REMARKS
MEDFORD        CLOUDY    58  58  99 CALM      29.88R
WAUSAU         CLOUDY    61  58  90 E3        29.86R
MOSINEE        PTCLDY    57  55  94 CALM      29.89S
MARSHFIELD     CLOUDY    60  56  86 CALM      29.87S
WISC RAPIDS    PTCLDY    59  56  89 CALM      29.89R
STEVENS POINT  CLEAR     57  57 100 CALM      29.88S
WAUPACA        CLEAR     61  61  99 CALM      29.87F
SHAWANO        CLEAR     62  58  87 CALM      29.87R
CLINTONVILLE   CLEAR     59  55  88 CALM      29.87R
WAUTOMA        MOCLDY    59  58  96 CALM      29.89R
$$

WIZ038-039-048-051-270700-
FOX VALLEY

CITY           SKY/WX    TMP DP  RH WIND       PRES   REMARKS
NWS GREEN BAY  CLEAR     61  59  93 W3        29.86S
APPLETON       CLEAR     64  55  72 SW3       29.86R
OSHKOSH        PTCLDY    62  56  80 S7        29.87S
FOND DU LAC    MOCLDY    60  57  89 S5        29.87S
$$

WIZ022-050-052-270700-
EAST CENTRAL WISCONSIN

CITY           SKY/WX    TMP DP  RH WIND       PRES   REMARKS
EPHRAIM        FAIR      61  57  85 S5        29.86R
STURGEON BAY   NOT AVBL
MANITOWOC      CLEAR     59  57  93 CALM      29.87S
SHEBOYGAN      PTCLDY    59  57  93 CALM      29.87S
$$

LMZ563-521-522-541>543-270700-
LAKESHORE

STATION/POSITION TIME  TEMP    WIND        PRES    VSBY  WAVE
                       AIR SEA DIR/SP/G                  HT/PER
                 (UTC) (F)     (DEG/KT/KT) (MB)    (MI)  (FT/S)
SHEBOYGAN LKSHOR 0600   64     240/  4/  4 1011.6F
KEWAUNEE LKSHORE 0500           CALM  /  2 1010.7F
ALGOMA MARINA    0517             CALM       N/A
NORTHPORT PIER   0500   53     130/  4/  5 1011.2F
N MID LAKE BUOY  0550   47 45  120/  6/  6 1011.5F         2/ 5
SISTER BAY LKSHO 0520   62     170/  7/  9   N/A
CHAMBERS ISLAND  0500   60      CALM  /  2 1010.8F
MENOMINEE LKSHOR 0500   60     130/  2/  3 1009.7F
$$




USA.gov is the U.S. government's official web portal to all federal, state and local government web resources and services.